[[{"header":{"parameterUnit":"m.s-1","parameterCategory":1,"la1":30.2991,"la2":30.254,"lo1":-89.0895,"lo2":-89.0444,"dy":0.0017,"dx":0.0017,"nx":28,"ny":28,"refTime":"2025-06-08T09:00:00:Z","depth":0,"parameterNumber":2,"parameterNumberName":"U-component_of_WINDS"},"data":[0,0,0,0,0,0,0,0,0,0,0,0,0,0,0,0,0,0,0,0,0,0,0,0,0,0,0,0,0,0,0,0,0,0,0,0,0,0,0,0,0,0,0,0,0,0,0,0,0,0,0,0,0,0,0,0,0,0,3.0929,3.093,0,3.0994,3.0995,3.0996,3.1028,3.1028,3.1028,3.1028,3.1093,3.1094,3.1096,0,0,0,0,0,0,0,0,0,0,0,0,0,3.0831,3.0833,3.0929,3.093,3.0931,3.0994,3.0995,3.0996,3.1028,3.1028,3.1028,3.1028,3.1092,3.1094,3.1096,0,0,0,0,0,0,0,0,0,0,0,0,0,3.0882,3.0833,3.0929,3.0954,3.0957,3.0994,3.0995,3.0996,3.1028,3.1028,3.1028,3.1028,3.1091,3.1094,3.1096,3.1113,0,0,3.1104,3.1106,0,0,0,0,0,0,0,0,3.088,3.0886,3.095,3.0953,3.0956,3.1003,3.0984,3.1035,3.1028,3.1001,3.1028,3.1028,3.1063,3.1068,3.108,3.1116,3.1119,3.1105,3.1106,3.1107,3.1108,0,0,0,0,0,0,0,3.0876,3.0883,3.0955,3.0951,3.0955,3.0962,3.0969,3.0994,3.1031,3.1003,3.1006,3.1013,3.1064,3.1077,3.1082,3.112,3.1105,3.1107,3.1109,3.111,3.1172,3.1172,0,0,0,0,0,0,3.0868,3.088,3.0953,3.0957,3.0917,3.0964,3.0972,3.0988,3.1031,3.1037,3.1013,3.1014,3.1073,3.1079,3.1084,3.1106,3.1107,3.111,3.1111,3.1172,3.1172,3.1173,0,0,0,0,0,0,3.0866,3.0875,3.095,3.0919,3.093,3.0965,3.0983,3.0989,3.1002,3.1038,3.1045,3.1019,3.1073,3.108,3.1106,3.1109,3.1111,3.1113,3.1172,3.1172,3.1172,3.115,0,0,0,0,0,0,3.0863,3.0874,3.0881,3.0919,3.0931,3.0971,3.0983,3.099,3.1007,3.1009,3.1046,3.1052,3.1074,3.1101,3.1108,3.1112,3.1115,3.1172,3.1172,3.1172,3.1151,3.115,3.1149,0,0,0,0,0,3.086,3.0871,3.0881,3.0889,3.0941,3.0971,3.0978,3.1003,3.1007,3.1014,3.1037,3.1051,3.1107,3.1104,3.1112,3.1117,3.1172,3.1172,3.1172,3.1151,3.115,3.1149,0,0,0,0,0,0,3.0831,3.0877,3.0888,3.0913,3.0938,3.0977,3.0986,3.1001,3.1025,3.1026,3.1055,3.1063,3.1086,3.1104,3.1099,3.1135,3.1141,3.1143,3.1122,3.1121,3.112,3.1115,3.1118,0,0,0,0,0,3.0828,3.085,3.0888,3.0906,3.0919,3.095,3.0964,3.0981,3.1009,3.1019,3.1044,3.107,3.1094,3.1108,3.1132,3.1154,3.1162,3.1161,3.116,3.1159,3.116,3.1173,3.1173,3.1173,3.1173,3.1173,0,0,3.0821,3.0849,3.0861,3.0901,3.0923,3.0944,3.0959,3.0981,3.0997,3.1023,3.1048,3.1067,3.1098,3.1121,3.1133,3.1137,3.1162,3.1159,3.1158,3.116,3.1173,3.1173,3.1173,3.1173,3.1173,3.1173,0,0,3.082,3.0843,3.0861,3.0883,3.0915,3.0937,3.0941,3.0977,3.0991,3.1018,3.1037,3.1057,3.1096,3.1117,3.1133,3.114,3.1154,3.1147,3.1141,3.1153,3.1153,3.1153,3.1156,3.1156,3.1148,3.1148,3.1148,0,3.0807,3.0841,3.0868,3.0889,3.0906,3.0931,3.0949,3.0969,3.1007,3.1018,3.1022,3.1073,3.1095,3.1124,3.1126,3.1138,3.1143,3.1143,3.1151,3.1152,3.1152,3.1155,3.1156,3.1147,3.1147,3.1147,3.1147,0,3.0824,3.0847,3.0857,3.0895,3.0913,3.0932,3.0962,3.0977,3.0992,3.1013,3.1039,3.1067,3.1096,3.1104,3.1119,3.1135,3.1137,3.1146,3.1152,3.115,3.1154,3.1155,3.1145,3.1146,3.1146,3.1146,0,0,3.0807,3.0859,3.0862,3.088,3.0918,3.0936,3.0956,3.0986,3.0999,3.1024,3.1042,3.1075,3.1084,3.1102,3.1119,3.113,3.1134,3.1137,3.1139,3.1136,3.1153,3.1146,3.1147,3.1143,3.1143,3.1144,3.1151,0,3.0811,3.0849,3.0874,3.0902,3.0924,3.0948,3.0966,3.0991,3.101,3.1031,3.1052,3.1076,3.1085,3.1096,3.1108,3.1131,3.1138,3.1131,3.1159,3.116,3.1151,3.1149,3.1142,3.1147,3.1152,3.1152,3.1152,0,3.0821,3.0847,3.0877,3.0914,3.0924,3.0939,3.0968,3.0988,3.1017,3.103,3.1051,3.1068,3.1091,3.1095,3.1126,3.1121,3.1134,3.1147,3.1148,3.1152,3.1156,3.1153,3.115,3.115,3.1155,3.1154,3.1154,0,3.0805,3.0848,3.0872,3.0886,3.0929,3.0939,3.0957,3.0986,3.1002,3.1028,3.1039,3.1066,3.1081,3.1101,3.1126,3.1127,3.1154,3.1161,3.1166,3.1165,3.1171,3.117,3.117,3.1179,3.1179,3.1179,3.1179,0,3.0807,3.0825,3.0865,3.088,3.0901,3.0929,3.0948,3.0968,3.0994,3.1013,3.1035,3.1052,3.1083,3.1104,3.1123,3.1146,3.1152,3.1163,3.1168,3.1162,3.116,3.1171,3.1171,3.1179,3.1179,3.1179,3.1179,0,3.0793,3.0821,3.0849,3.0887,3.0897,3.0911,3.0943,3.0958,3.0979,3.1003,3.101,3.1042,3.1068,3.1095,3.1129,3.1142,3.1164,3.1171,3.1154,3.1157,3.1161,3.116,3.1167,3.117,3.1177,3.1177,3.1176,0,3.0793,3.0807,3.0847,3.0862,3.088,3.0903,3.092,3.0948,3.0965,3.0999,3.101,3.1037,3.106,3.11,3.1126,3.1153,3.1161,3.1161,3.1165,3.1157,3.1161,3.116,3.1161,3.116,3.116,3.116,3.116,0,3.0789,3.0802,3.0826,3.0855,3.0875,3.0899,3.0924,3.0934,3.0967,3.0985,3.1011,3.103,3.1065,3.1092,3.1122,3.114,3.1155,3.1158,3.1161,3.1154,3.1144,3.115,3.1151,3.1158,3.1158,3.1158,3.1158,3.1159,3.0782,3.0796,3.0827,3.0853,3.0875,3.0897,3.0913,3.0937,3.096,3.0991,3.1006,3.1033,3.1062,3.1103,3.1121,3.1142,3.1147,3.115,3.1151,3.1152,3.115,3.1141,3.1148,3.1148,3.1148,3.1148,3.1148,0,3.0779,3.08,3.0824,3.0859,3.0879,3.0892,3.0921,3.0937,3.096,3.0986,3.1009,3.1039,3.1066,3.1094,3.1122,3.1133,3.1141,3.114,3.1139,3.1143,3.1145,3.114,3.1133,3.1133,3.1133,3.1133,3.1133,3.1133,3.078,3.0805,3.0822,3.0857,3.0878,3.0905,3.092,3.0941,3.0962,3.0996,3.1018,3.1037,3.1063,3.1093,3.1118,3.1126,3.1135,3.1131,3.1141,3.1142,3.1143,3.1144,3.114,3.1133,3.1133,3.1138,3.1138,3.1138]},{"header":{"parameterUnit":"m.s-1","parameterCategory":1,"la1":30.2991,"la2":30.254,"lo1":-89.0895,"lo2":-89.0444,"dy":0.0017,"dx":0.0017,"nx":28,"ny":28,"refTime":"2025-06-08T09:00:00:Z","depth":0,"parameterNumber":3,"parameterNumberName":"V-component_of_WINDS"},"data":[0,0,0,0,0,0,0,0,0,0,0,0,0,0,0,0,0,0,0,0,0,0,0,0,0,0,0,0,0,0,0,0,0,0,0,0,0,0,0,0,0,0,0,0,0,0,0,0,0,0,0,0,0,0,0,0,0,0,5.0384,5.0385,0,5.0455,5.0456,5.0457,5.0455,5.0455,5.0454,5.0453,5.0519,5.0521,5.0524,0,0,0,0,0,0,0,0,0,0,0,0,0,5.0243,5.0245,5.0384,5.0385,5.0386,5.0455,5.0456,5.0457,5.0456,5.0455,5.0453,5.0452,5.0518,5.0521,5.0524,0,0,0,0,0,0,0,0,0,0,0,0,0,5.0308,5.0246,5.0384,5.0394,5.0396,5.0455,5.0456,5.0457,5.0456,5.0454,5.0453,5.0452,5.0517,5.0521,5.0524,5.0577,0,0,5.0536,5.0538,0,0,0,0,0,0,0,0,5.0304,5.0313,5.0392,5.0393,5.0395,5.0445,5.043,5.0497,5.0456,5.0433,5.0453,5.0451,5.0495,5.0501,5.0517,5.058,5.0582,5.0537,5.0539,5.0541,5.0542,0,0,0,0,0,0,0,5.0299,5.031,5.0412,5.0393,5.0395,5.0393,5.0401,5.0443,5.047,5.0435,5.0435,5.0444,5.0496,5.0513,5.0518,5.0583,5.0537,5.054,5.0543,5.0544,5.0693,5.0694,0,0,0,0,0,0,5.0294,5.0306,5.041,5.0414,5.0346,5.0397,5.0405,5.043,5.047,5.0475,5.0445,5.0443,5.0507,5.0514,5.052,5.0584,5.0541,5.0544,5.0547,5.0691,5.0693,5.0695,0,0,0,0,0,0,5.0291,5.0303,5.0407,5.036,5.0373,5.0401,5.0429,5.0433,5.045,5.0478,5.0482,5.0458,5.0506,5.0515,5.0563,5.0586,5.0546,5.055,5.0689,5.0692,5.0694,5.0712,0,0,0,0,0,0,5.0287,5.0302,5.0323,5.0361,5.0376,5.045,5.043,5.0435,5.0458,5.0456,5.0491,5.0495,5.0506,5.0557,5.0567,5.0591,5.0553,5.0687,5.069,5.0693,5.0709,5.0714,5.0719,0,0,0,0,0,5.0282,5.0324,5.0324,5.0337,5.0404,5.0452,5.046,5.0473,5.0459,5.048,5.0498,5.0494,5.0583,5.0562,5.0573,5.0599,5.0686,5.0689,5.0693,5.0707,5.0713,5.0719,0,0,0,0,0,0,5.0286,5.0329,5.033,5.0386,5.0416,5.0451,5.0478,5.0479,5.0511,5.0508,5.0521,5.0529,5.0577,5.0592,5.0569,5.0651,5.0632,5.0638,5.0639,5.0645,5.065,5.0645,5.0556,0,0,0,0,0,5.0294,5.0331,5.0366,5.0412,5.0427,5.045,5.0471,5.0479,5.0509,5.0521,5.0542,5.057,5.0604,5.0625,5.0658,5.0712,5.0719,5.0735,5.074,5.0744,5.0748,5.0777,5.0785,5.0707,5.0706,5.0706,0,0,5.0309,5.0338,5.036,5.0414,5.0437,5.0474,5.046,5.05,5.0526,5.0526,5.0573,5.059,5.0622,5.0673,5.0696,5.0687,5.0771,5.0748,5.0751,5.0753,5.0782,5.0789,5.0796,5.0709,5.0709,5.0708,0,0,5.0357,5.0382,5.0424,5.0449,5.0486,5.0501,5.0511,5.0547,5.0559,5.0608,5.0608,5.0639,5.0697,5.072,5.0739,5.0797,5.0794,5.0807,5.0832,5.086,5.0866,5.0872,5.0892,5.0899,5.0812,5.0812,5.0812,0,5.037,5.0428,5.0444,5.0485,5.0508,5.0512,5.0553,5.0575,5.062,5.0635,5.0625,5.0699,5.0721,5.0777,5.0792,5.0807,5.0818,5.0802,5.0865,5.087,5.0876,5.0895,5.0902,5.0813,5.0813,5.0813,5.0813,0,5.0443,5.0483,5.0512,5.0558,5.0585,5.0625,5.0645,5.067,5.0676,5.0692,5.074,5.0767,5.0805,5.0819,5.0824,5.0876,5.087,5.0862,5.0843,5.0884,5.0902,5.091,5.0815,5.0814,5.0814,5.0814,0,0,5.0493,5.055,5.056,5.0581,5.0623,5.0653,5.0693,5.0733,5.0754,5.0785,5.0818,5.0868,5.0862,5.0883,5.0891,5.0916,5.096,5.0905,5.0906,5.0914,5.1018,5.1023,5.1031,5.0959,5.096,5.0961,5.1015,0,5.0544,5.0618,5.0635,5.0698,5.0734,5.0739,5.0774,5.0803,5.0819,5.0851,5.0868,5.0903,5.0893,5.0906,5.0931,5.0949,5.098,5.0945,5.0988,5.0989,5.0979,5.1041,5.1046,5.1096,5.1023,5.1024,5.1025,0,5.0613,5.0649,5.0716,5.0755,5.0771,5.0802,5.084,5.0871,5.0904,5.0913,5.0939,5.0944,5.0985,5.0965,5.102,5.0996,5.1014,5.1026,5.1028,5.1031,5.1009,5.1045,5.1112,5.1119,5.1036,5.1035,5.1034,0,5.0642,5.0707,5.0756,5.0774,5.082,5.0842,5.0861,5.0893,5.0916,5.0949,5.0964,5.1,5.1019,5.1046,5.1061,5.1045,5.1115,5.1096,5.1123,5.1122,5.1136,5.1134,5.1205,5.1149,5.1149,5.1149,5.1149,0,5.0697,5.0737,5.0769,5.0799,5.0845,5.0863,5.0907,5.0926,5.0954,5.0986,5.0993,5.1022,5.104,5.1072,5.1084,5.1127,5.1136,5.1144,5.1146,5.1143,5.1142,5.1154,5.1151,5.1151,5.1151,5.115,5.115,0,5.0736,5.0759,5.0813,5.0853,5.0864,5.0896,5.0929,5.0957,5.0975,5.1016,5.1026,5.1052,5.109,5.1108,5.1154,5.1162,5.1211,5.1212,5.1201,5.1202,5.1227,5.1224,5.1307,5.1319,5.1256,5.1257,5.1257,0,5.0768,5.08,5.0845,5.0869,5.089,5.0927,5.0952,5.0971,5.0996,5.1036,5.1059,5.1098,5.113,5.1191,5.1212,5.1248,5.1248,5.1275,5.1253,5.1249,5.1248,5.1245,5.1248,5.1278,5.1279,5.128,5.128,0,5.0824,5.0834,5.0871,5.0912,5.0942,5.0975,5.1006,5.1024,5.1048,5.1076,5.1116,5.1142,5.1191,5.1229,5.1266,5.1284,5.1286,5.1287,5.1295,5.1291,5.1284,5.1287,5.1211,5.1285,5.1284,5.1284,5.1284,5.1283,5.086,5.0889,5.0925,5.0966,5.0993,5.1023,5.1052,5.1074,5.1109,5.1152,5.1161,5.1203,5.1235,5.1286,5.1306,5.1338,5.1331,5.1343,5.1346,5.1348,5.1349,5.128,5.1345,5.1345,5.1345,5.1345,5.1344,0,5.0915,5.0939,5.0977,5.1023,5.1055,5.1057,5.1092,5.1118,5.1157,5.1187,5.122,5.1266,5.1304,5.133,5.1367,5.1388,5.139,5.1397,5.1395,5.1399,5.1353,5.1342,5.1395,5.1395,5.1395,5.1395,5.1395,5.1395,5.0947,5.0996,5.1011,5.1074,5.1097,5.1141,5.1161,5.1189,5.1214,5.1266,5.1299,5.1316,5.1345,5.1385,5.1419,5.1425,5.1438,5.1446,5.1452,5.1408,5.1402,5.1397,5.1387,5.1449,5.1449,5.1495,5.1496,5.1496]}]]